This is the latest recevied weather packets stored in our database for station/object HB9ZRH-10. If no packets are shown the sender has not sent any weather packets the latest 10 day(s).
| Time | Temp. | Humidity | Pressure | Rain* | Wind** | Luminosity | Snow |
|---|---|---|---|---|---|---|---|
| 1778022236 | 24.44° C | 39% | 1009.1 hPa | - | - | - | - |
| 1778021936 | 24.44° C | 39% | 1009.2 hPa | - | - | - | - |
| 1778021636 | 24.44° C | 39% | 1009.1 hPa | - | - | - | - |
| 1778021119 | 23.89° C | 39% | 1009.2 hPa | - | - | - | - |
| 1778020819 | 23.89° C | 40% | 1009.1 hPa | - | - | - | - |
| 1778020519 | 23.89° C | 40% | 1009.2 hPa | - | - | - | - |
| 1778020219 | 23.33° C | 40% | 1009.2 hPa | - | - | - | - |
| 1778019919 | 23.33° C | 40% | 1009.1 hPa | - | - | - | - |
| 1778019619 | 23.89° C | 40% | 1009.2 hPa | - | - | - | - |
| 1778019319 | 25° C | 39% | 1009.3 hPa | - | - | - | - |
| 1778019019 | 25.56° C | 39% | 1009.1 hPa | - | - | - | - |
| 1778018719 | 25° C | 39% | 1009.2 hPa | - | - | - | - |
| 1778018419 | 24.44° C | 39% | 1009.2 hPa | - | - | - | - |
| 1778018119 | 25° C | 39% | 1009.4 hPa | - | - | - | - |
| 1778017819 | 25° C | 40% | 1009.4 hPa | - | - | - | - |
| 1778017519 | 24.44° C | 40% | 1009.6 hPa | - | - | - | - |
| 1778017219 | 24.44° C | 40% | 1009.7 hPa | - | - | - | - |
| 1778016919 | 24.44° C | 40% | 1009.8 hPa | - | - | - | - |
| 1778016619 | 24.44° C | 40% | 1009.7 hPa | - | - | - | - |
| 1778016319 | 24.44° C | 40% | 1009.8 hPa | - | - | - | - |
| 1778016019 | 24.44° C | 40% | 1009.8 hPa | - | - | - | - |
| 1778015719 | 24.44° C | 40% | 1009.9 hPa | - | - | - | - |
| 1778015419 | 25° C | 40% | 1009.9 hPa | - | - | - | - |
| 1778015119 | 24.44° C | 40% | 1009.9 hPa | - | - | - | - |
| 1778014819 | 24.44° C | 40% | 1009.8 hPa | - | - | - | - |
* Rain since midnight (hover to see other rain measurements)
** Current wind speed in m/s (hover to see current wind gust speed)